Regional Weather Roundup
Issued by NWS Upton, NY

Current Version | Previous Version | Text Only | Print | Product List | Glossary On
Versions: 1 2 3 4 5 6 7 8 9 10 11 12 13 14 15 16 17 18 19 20 21 22 23 24 25 26 27 28 29 30 31 32 33 34 35 36 37 38 39 40 41 42 43 44 45 46 47 48 49
930
ASUS41 KOKX 140904
RWROKX

REGIONAL WEATHER ROUNDUP
NATIONAL WEATHER SERVICE NEW YORK NY
400 AM EST SUN FEB 14 2016

NOTE: "FAIR" INDICATES FEW OR NO CLOUDS BELOW 12,000 FEET WITH NO
SIGNIFICANT WEATHER AND/OR OBSTRUCTIONS TO VISIBILITY.

NYZ071-072-176-178-NJZ106-104-141000-
NEW YORK CITY METRO AREA


CITY           SKY/WX    TMP DP  RH WIND       PRES   REMARKS
CENTRAL PARK   CLEAR      3 -12  49 VRB7G18   30.38R WCI  -9
LAGUARDIA APRT PTCLDY     5  -7  57 NW16G24   30.38R WCI -14
KENNEDY INTL   PTCLDY     5 -11  47 NW17      30.39R WCI -14
NEWARK/LIBERTY PTCLDY     5 -13  43 NW10      30.39R WCI -10
BRNX BOT. GARD   N/A      3 -13  47 W22       30.38R WCI -19
TETERBORO      CLEAR      3 -14  45 NW18G26   30.38R WCI -17
$$

NYZ177-179-078>081-141000-
LONG ISLAND NEW YORK

CITY           SKY/WX    TMP DP  RH WIND       PRES   REMARKS
FARMINGDALE    CLEAR      6 -13  41 NW12G22   30.36R WCI  -9
ISLIP          MOCLDY     3 -14  45 NW14G31   30.33R WCI -15
SHIRLEY        CLEAR      1 -12  54 NW20G29   30.35R WCI -20
RIVERHEAD        N/A      1 -22  32 NW12      30.32R WCI -15
WESTHAMPTON    CLEAR     -2 -11  65 NW17G25   30.34R WCI -23
EAST HAMPTON   MOCLDY     0 -11  59 NW14G25   30.30R WCI -19
MONTAUK POINT    N/A      0 -10  63 NW21G33   30.30R WCI -22
$$

NYZ052-065-067-141000-
HUDSON VALLEY

CITY           SKY/WX    TMP DP  RH WIND       PRES   REMARKS
WHITE PLAINS   PTCLDY    -1 -16  48 NW20G31   30.30R WCI -23
NEWBURGH       CLEAR     -4 -17  54 W16G28    30.34R WCI -25
MONTGOMERY     CLEAR     -4 -19  48 NW16G22   30.36R WCI -25
POUGHKEEPSIE   CLEAR     -3 -19  46 N9        30.39R WCI -19
ALBANY         PTCLDY   -12 -27  47 NW12      30.42R WCI -32
$$

NJZ001-105-106-008-010-013-015-019>022-104-141000-
NEW JERSEY

CITY           SKY/WX    TMP DP  RH WIND       PRES   REMARKS
NEWARK/LIBERTY PTCLDY     5 -13  43 NW10      30.39R WCI -10
TETERBORO      CLEAR      3 -14  45 NW18G26   30.38R WCI -17
CALDWELL       CLEAR      2 -13  49 NW10G16   30.39R WCI -14
MORRISTOWN     CLEAR      3 -17  39 NW9G20    30.37R WCI -11
SOMERVILLE     PTCLDY     5 -13  43 NW10      30.38R WCI -10
SUSSEX         CLEAR     -1 -16  48 NW12G18   30.35R WCI -18
ANDOVER          N/A     -1 -12  59 VRB7G16   30.35R WCI -14
TRENTON        CLEAR      5  -7  57 N5        30.39R WCI  -4
MILLVILLE      CLEAR     11  -5  48 NW12G22   30.41R WCI  -3
ATLANTIC CITY  CLEAR     10  -8  44 NW14      30.39R WCI  -6
WRIGHTSTOWN    NOT AVBL
TOMS RIVER     CLEAR      7  -8  51 N9        30.38R WCI  -7
BELMAR         CLEAR      7 -17  33 NW24      30.36R WCI -15
$$

PAZ047>061-062-071-141000-
EASTERN PENNSYLVANIA

CITY           SKY/WX    TMP DP  RH WIND       PRES   REMARKS
PHILADELPHIA   PTCLDY    11 -11  36 NW22      30.42R WCI  -8
ALLENTOWN      CLEAR      6 -12  43 NW14G20   30.38R WCI -11
SCRANTON       CLOUDY    -1 -13  56 N9G20     30.34R WCI -16
$$

CTZ002-004>006-009-010-012-RIZ004-006-007-MAZ004-011-015-141000-
SOUTHERN NEW ENGLAND
 IN CT

CITY           SKY/WX    TMP DP  RH WIND       PRES   REMARKS
BRADLEY INTL   CLEAR    -10 -27  42 NW3       30.31R
HARTFORD       CLEAR     -7 -24  43 NW6       30.36R WCI -20
DANBURY        CLEAR     -7 -22  48 NW7       30.33R WCI -21
WTRBRY/OXFORD  CLEAR     -9 -29  37 NW8       30.27R WCI -26
BRIDGEPORT     CLEAR     -4 -19  48 NW14      30.36R WCI -24
MERIDEN        CLEAR     -5 -24  39 NW10G24   30.33R WCI -23
NEW HAVEN      CLEAR     -5 -20  48 N12       30.36R WCI -23
CHESTER        FAIR      -6 -24  41 NW16G28   30.26R WCI -28
GROTON         CLEAR     -6 -20  50 NW18      30.30R WCI -29
WILLIMANTIC    PTCLDY    -8 -26  41 NW8G23    30.29R WCI -24

 IN RI

CITY           SKY/WX    TMP DP  RH WIND       PRES   REMARKS
PROVIDENCE     CLEAR     -8 -26  41 NW13      30.27R WCI -28
BLOCK ISLAND   PTCLDY    -2 -15  55 NW17G30   30.23R WCI -24
WESTERLY       CLEAR     -6 -26  37 NW9G20    30.29R WCI -23

 IN MA

CITY           SKY/WX    TMP DP  RH WIND       PRES   REMARKS
BOSTON         PTCLDY    -9 -24  48 NW25G33   30.23R WCI -36
WORCESTER      CLEAR    -15 -27  54 NW17      30.11R WCI -40
WESTFIELD      CLEAR    -11 -28  43 N14G20    30.30R WCI -33
PROVINCETOWN   SNOW      -2  -7  79 NW24G37   30.17R VSB 1/2 WCI -26
NANTUCKET      CLOUDY     1 -11  57 NW20G30   30.17R WCI -20
$$

ANZ330-335-338-340-345-350-353-355-141000-
COASTAL MARINE OBSERVATIONS


STATION/POSITION TIME  SKY/WX   TEMP    WIND        PRES    VSBY  WAVE
                                AIR SEA DIR/SP/G                  HT/PER
                 (UTC)          (F)     (DEG/KT/KT) (MB)    (MI)  (FT/S)
NY HARB ENTRANCE 0750            10 43  310/ 25/ 35 1027.3          5/ 5
4S FIRE IS       NOT AVBL
20S FIRE ISLAND  0750            11 40  320/ 23/ 31 1026.4          7/ 7
GREAT SOUTH BAY  NOT AVBL
23SW MTP         0850             7 43  300/ 29/ 39 1024.9          8/ 5
HUDSON CANYON    0750            17 48              1025.2         14/ 8
KINGS POINT      0800             6 32   30/ 16/ 22 1027.6
EXECUTION ROCKS  NOT AVBL
CENTRAL LI SOUND 0815             2     310/ 23/ 29   N/A           4/ 5
EASTERN LI SOUND 0800             5 40  290/ 21/ 29   N/A
ROBBINS REEF     0800             6     310/ 21/ 27 1027.1
$$


>>>>>>>>>>>>>>>>>>>>>>>>>>>> KEY <<<<<<<<<<<<<<<<<<<<<<<<<<<
>                                                          <
>     SKY/WX - SKY CONDITION/PRESENT WEATHER               <
>     TMP    - TEMPERATURE IN FAHRENHEIT                   <
>     DP     - DEWPOINT IN FAHRENHEIT                      <
>     RH     - RELATIVE HUMIDITY IN PERCENT                <
>     WIND   - DIRECTION AND SPEED IN MPH                  <
>     PRES   - MEAN SEA LEVEL PRESSURE IN INCHES OF HG     <
>     WCI    - WIND CHILL INDEX                            <
>     VSB    - VISIBILITY IN MILES                         <
>     HX     - HEAT INDEX                                  <
>     TC     - TEMPERATURE IN CELSIUS                      <
>     VRB    - VARIABLE WIND DIRECTION                     <
>                                                          <
>>>>>>>>>>>>>>>>>>>>>>>>>>>> KEY <<<<<<<<<<<<<<<<<<<<<<<<<<<






USA.gov is the U.S. government's official web portal to all federal, state and local government web resources and services.